CEB125 RPVB-RPVM

Flight info

Callsign CEB125
Flight time 0h 20m
Altitude 13000
Route TADAG2C TADAG TADAG3P
Aircraft A320/M-SDE3FGHIRWY/LB1

Departure

Time 2026-04-14 12:25
Airport Bacolod-Silay International Airport (RPVB)

Arrival

Time 2026-04-14 12:45
Airport Mactan Cebu International Airport (RPVM)
Time Latitude Longitude Altitude Speed Heading
2026-04-14 12:14 10.77681 123.01567 93 ft 0 kts 299°
2026-04-14 12:17 10.77673 123.01581 90 ft 4 kts 299°
2026-04-14 12:18 10.77660 123.01605 92 ft 4 kts 299°
2026-04-14 12:18 10.77651 123.01628 94 ft 4 kts 259°
2026-04-14 12:18 10.77663 123.01646 92 ft 2 kts 210°
2026-04-14 12:18 10.77666 123.01648 92 ft 0 kts 210°
2026-04-14 12:20 10.77665 123.01648 92 ft 2 kts 210°
2026-04-14 12:21 10.77626 123.01625 95 ft 7 kts 210°
2026-04-14 12:21 10.77585 123.01601 93 ft 6 kts 210°
2026-04-14 12:21 10.77535 123.01572 95 ft 12 kts 210°
2026-04-14 12:21 10.77466 123.01532 93 ft 11 kts 210°
2026-04-14 12:22 10.77402 123.01504 93 ft 10 kts 182°
2026-04-14 12:22 10.77351 123.01537 93 ft 8 kts 124°
2026-04-14 12:22 10.77326 123.01582 95 ft 8 kts 120°
2026-04-14 12:22 10.77288 123.01643 93 ft 13 kts 135°
2026-04-14 12:23 10.77207 123.01640 94 ft 12 kts 208°
2026-04-14 12:23 10.77144 123.01603 95 ft 11 kts 210°
2026-04-14 12:23 10.77038 123.01541 96 ft 20 kts 210°
2026-04-14 12:23 10.76942 123.01458 97 ft 14 kts 243°
2026-04-14 12:24 10.76899 123.01456 96 ft 6 kts 91°
2026-04-14 12:24 10.76915 123.01470 98 ft 0 kts 28°
2026-04-14 12:24 10.76941 123.01485 97 ft 29 kts 28°
2026-04-14 12:25 10.77362 123.01731 93 ft 107 kts 30°
2026-04-14 12:25 10.78183 123.02218 155 ft 159 kts 32°
2026-04-14 12:25 10.79167 123.02812 780 ft 168 kts 34°
2026-04-14 12:25 10.79930 123.03699 1533 ft 170 kts 69°
2026-04-14 12:26 10.79984 123.04906 2201 ft 180 kts 99°
2026-04-14 12:26 10.79545 123.06195 2534 ft 206 kts 108°
2026-04-14 12:26 10.78972 123.07629 2921 ft 231 kts 108°
2026-04-14 12:26 10.78361 123.09227 3367 ft 254 kts 108°
2026-04-14 12:27 10.77723 123.10942 4120 ft 262 kts 110°
2026-04-14 12:27 10.76746 123.12527 4945 ft 272 kts 134°
2026-04-14 12:27 10.75129 123.13553 5745 ft 280 kts 161°
2026-04-14 12:27 10.73184 123.13708 6576 ft 285 kts 190°
2026-04-14 12:28 10.71249 123.13205 7375 ft 289 kts 195°
2026-04-14 12:28 10.69314 123.12649 8114 ft 295 kts 195°
2026-04-14 12:28 10.67317 123.12069 8861 ft 301 kts 195°
2026-04-14 12:28 10.65294 123.11482 9626 ft 305 kts 195°
2026-04-14 12:29 10.63232 123.10886 10237 ft 314 kts 195°
2026-04-14 12:29 10.61051 123.10261 10441 ft 337 kts 195°
2026-04-14 12:29 10.58718 123.09598 10705 ft 355 kts 195°
2026-04-14 12:29 10.56279 123.09108 11226 ft 361 kts 181°
2026-04-14 12:30 10.53786 123.09396 11829 ft 363 kts 162°
2026-04-14 12:30 10.51509 123.10488 12461 ft 363 kts 142°
2026-04-14 12:30 10.49697 123.12259 12825 ft 361 kts 124°
2026-04-14 12:30 10.48290 123.14383 12918 ft 366 kts 121°
2026-04-14 12:31 10.46889 123.16567 12935 ft 371 kts 121°
2026-04-14 12:31 10.45481 123.18774 12940 ft 372 kts 121°
2026-04-14 12:31 10.44067 123.20982 12936 ft 373 kts 121°
2026-04-14 12:31 10.42646 123.23185 12933 ft 373 kts 121°
2026-04-14 12:32 10.41220 123.25385 12939 ft 373 kts 121°
2026-04-14 12:32 10.39789 123.27585 12936 ft 373 kts 121°
2026-04-14 12:32 10.38357 123.29783 12941 ft 373 kts 121°
2026-04-14 12:32 10.36946 123.31952 12933 ft 373 kts 121°
2026-04-14 12:33 10.35520 123.34155 12941 ft 373 kts 121°
2026-04-14 12:33 10.34094 123.36359 12944 ft 373 kts 121°
2026-04-14 12:33 10.32666 123.38562 12895 ft 370 kts 121°
2026-04-14 12:33 10.31267 123.40712 12617 ft 360 kts 121°
2026-04-14 12:34 10.29894 123.42818 12159 ft 356 kts 121°
2026-04-14 12:34 10.28534 123.44909 11669 ft 354 kts 121°
2026-04-14 12:34 10.27181 123.46990 11173 ft 351 kts 122°
2026-04-14 12:34 10.25844 123.49050 10752 ft 347 kts 122°
2026-04-14 12:35 10.24521 123.51085 10388 ft 342 kts 121°
2026-04-14 12:35 10.23254 123.53031 10266 ft 318 kts 121°
2026-04-14 12:35 10.22066 123.54851 9994 ft 303 kts 121°
2026-04-14 12:35 10.20919 123.56613 9604 ft 295 kts 121°
2026-04-14 12:36 10.19788 123.58351 9476 ft 295 kts 121°
2026-04-14 12:36 10.18658 123.60089 9262 ft 295 kts 121°
2026-04-14 12:36 10.17533 123.61819 8897 ft 293 kts 121°
2026-04-14 12:36 10.16414 123.63542 8508 ft 292 kts 121°
2026-04-14 12:37 10.15300 123.65257 8128 ft 291 kts 122°
2026-04-14 12:37 10.14187 123.66968 7731 ft 289 kts 122°
2026-04-14 12:37 10.13113 123.68614 7369 ft 277 kts 122°
2026-04-14 12:37 10.12070 123.70211 6998 ft 266 kts 122°
2026-04-14 12:38 10.10205 123.73262 6326 ft 243 kts 109°
2026-04-14 12:38 10.09877 123.74903 5986 ft 234 kts 89°
2026-04-14 12:38 10.10111 123.76496 5674 ft 225 kts 70°
2026-04-14 12:39 10.10821 123.77877 5348 ft 220 kts 52°
2026-04-14 12:39 10.11883 123.79000 5032 ft 222 kts 44°
2026-04-14 12:39 10.13001 123.80112 4705 ft 223 kts 45°
2026-04-14 12:39 10.14108 123.81222 4371 ft 225 kts 45°
2026-04-14 12:40 10.15207 123.82327 4050 ft 226 kts 45°
2026-04-14 12:40 10.16317 123.83442 3740 ft 220 kts 44°
2026-04-14 12:40 10.17381 123.84512 3495 ft 209 kts 45°
2026-04-14 12:40 10.18396 123.85531 3211 ft 199 kts 45°
2026-04-14 12:41 10.19350 123.86489 2934 ft 186 kts 44°
2026-04-14 12:41 10.19947 123.87087 2756 ft 178 kts 44°
2026-04-14 12:41 10.20790 123.87929 2542 ft 161 kts 44°
2026-04-14 12:41 10.21545 123.88686 2321 ft 146 kts 43°
2026-04-14 12:42 10.22252 123.89393 2119 ft 140 kts 43°
2026-04-14 12:42 10.22941 123.90084 1932 ft 139 kts 43°
2026-04-14 12:42 10.23624 123.90768 1747 ft 139 kts 44°
2026-04-14 12:42 10.24308 123.91456 1563 ft 138 kts 43°
2026-04-14 12:43 10.24990 123.92143 1381 ft 138 kts 44°
2026-04-14 12:43 10.25671 123.92833 1211 ft 138 kts 45°
2026-04-14 12:43 10.26342 123.93541 1030 ft 140 kts 41°
2026-04-14 12:43 10.27043 123.94233 839 ft 140 kts 42°
2026-04-14 12:44 10.27728 123.94919 622 ft 139 kts 43°
2026-04-14 12:44 10.28421 123.95608 407 ft 139 kts 41°
2026-04-14 12:44 10.29107 123.96295 239 ft 138 kts 42°
2026-04-14 12:45 10.30394 123.97576 37 ft 98 kts 44°
2026-04-14 12:45 10.30787 123.97973 35 ft 63 kts 45°
2026-04-14 12:45 10.31045 123.98230 36 ft 29 kts 41°
2026-04-14 12:45 10.31220 123.98322 38 ft 28 kts 22°
2026-04-14 12:46 10.31388 123.98319 37 ft 22 kts 320°
2026-04-14 12:46 10.31486 123.98219 36 ft 17 kts 315°
2026-04-14 12:46 10.31563 123.98138 37 ft 11 kts 303°
2026-04-14 12:46 10.31540 123.98075 37 ft 10 kts 224°
2026-04-14 12:47 10.31494 123.98029 36 ft 9 kts 225°
2026-04-14 12:47 10.31454 123.97988 35 ft 8 kts 225°
2026-04-14 12:47 10.31418 123.97952 36 ft 7 kts 225°
2026-04-14 12:47 10.31383 123.97916 35 ft 11 kts 225°
2026-04-14 12:48 10.31320 123.97875 37 ft 10 kts 219°
2026-04-14 12:48 10.31332 123.97822 37 ft 8 kts 313°
2026-04-14 12:48 10.31347 123.97804 37 ft 2 kts 310°
2026-04-14 12:48 10.31352 123.97798 37 ft 0 kts 310°